This demonstration page uses our WeatherBlox Daily Observations layout. Learn more.

Left ArrowRight Arrow

38.20091, -84.87328

Hourly Observations for August 7, 2021

Temp ( °F °C ) Dew Point ( °F °C ) Humidity (%) Winds ( mph kmh ) Pressure ( in mb ) Visibility ( mi km ) Precip ( " mm )
12:53 am 00:53 Clear 73 22.8 69 20.6 87 87 S 5 7 30.06 1018 10 16 0.00 0.00
1:53 am 01:53 Clear 72 22.2 69 20.6 91 91 Calm 30.05 1018 9 14 0.00 0.00
2:53 am 02:53 Clear 72 22.2 69 20.6 91 91 Calm 30.04 1017 9 14 0.00 0.00
3:53 am 03:53 Clear 72 22.2 68 20 87 87 Calm 30.03 1017 10 16 0.00 0.00
4:53 am 04:53 Clear 71 21.7 68 20 90 90 Calm 30.03 1017 10 16 0.00 0.00
5:53 am 05:53 Clear 71 21.7 68 20 90 90 Calm 30.04 1017 9 14 0.00 0.00
6:53 am 06:53 Sunny with Mist and Fog 69 20.6 67 19.4 93 93 S 3 6 30.06 1018 6 10 0.00 0.00
7:53 am 07:53 Sunny with Mist and Fog 70 21.1 68 20 93 93 Calm 30.06 1018 6 10 0.00 0.00
8:53 am 08:53 Sunny 72 22.2 69 20.6 91 91 SW 5 7 30.08 1019 7 11 0.00 0.00
9:53 am 09:53 Sunny 78 25.6 69 20.6 74 74 Calm 30.07 1018 10 16 0.00 0.00
10:53 am 10:53 Sunny 82 27.8 67 19.4 60 60 NW 8 13 30.07 1018 10 16 0.00 0.00
11:53 am 11:53 Sunny 84 28.9 62 16.7 48 48 NW 9 15 30.07 1018 10 16 0.00 0.00
12:53 pm 12:53 Mostly Sunny 85 29.4 63 17.2 48 48 VRB 3 6 30.05 1018 10 16 0.00 0.00
1:53 pm 13:53 Mostly Sunny 86 30 64 17.8 48 48 SSW 5 7 30.04 1017 10 16 0.00 0.00
2:53 pm 14:53 Mostly Sunny 87 30.6 61 16.1 42 42 SSW 3 6 30.04 1017 10 16 0.00 0.00
3:53 pm 15:53 Sunny 88 31.1 60 15.6 39 39 SW 9 15 30.02 1017 10 16 0.00 0.00
4:53 pm 16:53 Sunny 89 31.7 61 16.1 39 39 VRB 5 7 30.01 1016 10 16 0.00 0.00
5:53 pm 17:53 Sunny 87 30.6 60 15.6 40 40 VRB 3 6 30.00 1016 10 16 0.00 0.00
6:53 pm 18:53 Sunny 82 27.8 66 18.9 58 58 S 12 19 30.01 1016 10 16 0.00 0.00
7:53 pm 19:53 Sunny 80 26.7 68 20 67 67 SSW 7 11 30.01 1016 10 16 0.00 0.00
8:53 pm 20:53 Clear 76 24.4 68 20 77 77 SSW 6 9 30.01 1016 10 16 0.00 0.00
9:53 pm 21:53 Clear 74 23.3 68 20 82 82 SW 3 6 30.02 1017 10 16 0.00 0.00
10:53 pm 22:53 Partly Cloudy 71 21.7 67 19.4 87 87 Calm 30.05 1018 10 16 0.00 0.00
11:53 pm 23:53 Clear 72 22.2 67 19.4 84 84 Calm 30.04 1017 10 16 0.00 0.00

Powered by AerisWeather